Home > Weather > Bamako > Past weeks

Flag for Mali Past Weather in Bamako, Mali — Yesterday and Last 2 Weeks

Now
75 °F

Clear.


Feels Like: 74 °F
Forecast: N/A
Wind: 1 mph from Southwest

Location: Bamako / Senou

Current Time: Jun 27, 2016 at 8:34:43 PM

Latest Report: Jun 27, 2016 at 8:00 PM


Visibility: 10 mi

Pressure: 29.98 "Hg

Humidity: 94%

Dew Point: 73 °F

Location of BamakoLocation

Past Weather in Bamako — Graph

°F

Bamako Temperature Yesterday

Maximum temperature yesterday: 95 °F (at 3:30 PM)
Minimum temperature yesterday: 77 °F (at 12:30 AM)
Average temperature yesterday: 85 °F

High & Low Weather Summary for the Past Weeks

 TemperatureHumidityPressure
High104 °F (Jun 20, 4:30 PM)100% (Jun 13, 3:00 AM)30.15 "Hg (Jun 13, 3:00 AM)
Low70 °F (Jun 27, 6:00 AM)15% (Jun 20, 4:30 PM)29.77 "Hg (Jun 20, 3:30 PM)
Average84 °F68%29.97 "Hg
* Reported Jun 12 7:00 PM — Jun 27 7:30 PM, Bamako, Weather by CustomWeather, © 2016

Note: Actual official high and low records may vary slightly from our data, if they occured in-between our weather recording intervals... More about our weather records

Advertising

Bamako Weather History for the Previous 24 Hours

Scroll right to see more
 ConditionsComfort  
Time TempWeatherWind HumidityBarometerVisibility
7:30 PM
Mon, Jun 27
75 °FClear.2 mph94%29.98 "Hg10 mi
7:00 PM75 °FClear.2 mph94%29.98 "Hg10 mi
6:30 PM75 °FSunny.3 mph94%29.98 "Hg10 mi
6:00 PM75 °FPassing clouds.5 mph89%29.98 "HgN/A
5:30 PM77 °FPassing clouds.3 mph83%29.95 "HgN/A
5:00 PM77 °FPassing clouds.3 mph83%29.95 "HgN/A
4:30 PM77 °FPassing clouds.3 mph83%29.95 "HgN/A
4:00 PM75 °FPassing clouds.No wind83%29.95 "HgN/A
3:30 PM75 °FPassing clouds.1 mph89%29.95 "HgN/A
3:00 PM73 °FPassing clouds.3 mph94%29.95 "HgN/A
2:30 PM73 °FPassing clouds.6 mph89%29.98 "HgN/A
2:00 PM72 °FPassing clouds.9 mph94%30.01 "HgN/A
1:30 PM72 °FThunderstorms. Scattered clouds.7 mph100%30.04 "HgN/A
1:00 PM70 °FThunderstorms. Scattered clouds.10 mph100%30.07 "HgN/A
12:30 PM70 °FThunderstorms. Scattered clouds.10 mph100%30.07 "Hg5 mi
12:00 PM70 °FThunderstorms. Scattered clouds.9 mph100%30.07 "Hg5 mi
11:30 AM70 °FThunderstorms. Scattered clouds.9 mph100%30.09 "Hg5 mi
11:00 AM72 °FThunderstorms. Scattered clouds.10 mph100%30.09 "Hg2 mi
10:30 AM72 °FThunderstorms. Scattered clouds.5 mph100%30.07 "HgN/A
10:00 AM72 °FThunderstorms. Scattered clouds.6 mph100%30.09 "HgN/A
9:30 AM70 °FThunderstorms. Scattered clouds.3 mph100%30.09 "HgN/A
9:00 AM70 °FThunderstorms. Scattered clouds.1 mph100%30.09 "HgN/A
8:30 AM70 °FThunderstorms. Scattered clouds.9 mph100%30.01 "HgN/A
8:00 AM70 °FThunderstorms. Scattered clouds.9 mph100%30.01 "HgN/A
7:30 AM70 °FThunderstorms. Scattered clouds.No wind100%30.04 "HgN/A
7:00 AM70 °FThunderstorms. Passing clouds.7 mph100%30.07 "Hg5 mi
6:30 AM70 °FThunderstorms. Scattered clouds.15 mph100%30.01 "Hg5 mi
6:00 AM70 °FStrong thunderstorms. Passing clouds.25 mph100%30.04 "HgN/A
5:30 AM81 °FThunderstorms. Passing clouds.7 mph84%29.95 "HgN/A
5:00 AM81 °FThunderstorms. Passing clouds.7 mph84%29.95 "HgN/A
4:00 AM81 °FPassing clouds.3 mph84%29.95 "HgN/A
3:30 AM81 °FPassing clouds.6 mph84%29.95 "HgN/A
3:00 AM81 °FPassing clouds.6 mph84%29.95 "HgN/A
2:30 AM81 °FPassing clouds.6 mph84%29.95 "HgN/A
2:00 AM81 °FPassing clouds.5 mph84%29.95 "HgN/A
1:30 AM82 °FPassing clouds.7 mph74%29.98 "HgN/A
1:00 AM82 °FPassing clouds.5 mph79%29.98 "HgN/A
12:30 AM82 °FPassing clouds.6 mph74%29.98 "HgN/A
12:00 AM84 °FPassing clouds.6 mph70%29.98 "HgN/A
11:30 PM
Sun, Jun 26
84 °FPassing clouds.7 mph70%29.98 "HgN/A
11:00 PM84 °FPassing clouds.5 mph70%29.98 "HgN/A
10:30 PM84 °FPassing clouds.7 mph70%29.98 "HgN/A
10:00 PM84 °FThunderstorms. Passing clouds.5 mph70%29.98 "HgN/A
9:30 PM86 °FThunderstorms. Passing clouds.6 mph62%29.98 "HgN/A
9:00 PM84 °FPassing clouds.7 mph70%29.92 "HgN/A
8:30 PM88 °FThunderstorms. Passing clouds.7 mph59%29.95 "HgN/A
8:00 PM88 °FThunderstorms. Passing clouds.6 mph59%29.95 "HgN/A
Weather by CustomWeather, © 2016

See weather overviewHow to use our weather pages